Theta_e
293 292 291 291 290 290 290 290 289 289 289 288 289 288 288 287 288 287 288 287 286 286 287 287 287 289 286 292 292 292 291 295 292 296 299 296 291 295 297 299 301 306 308
292 290 290 290 290 289 289 289 289 288 289 289 288 287 287 287 287 286 285 285 285 285 286 286 286 287 287 286 291 291 292 294 294 292 293 293 293 296 294 296 298 302 307
290 289 289 289 289 288 288 288 288 288 288 289 288 287 287 287 285 285 285 285 285 285 285 285 286 286 286 287 289 290 291 293 293 294 293 294 293 293 290 291 293 297 305
289 289 288 288 288 288 288 288 288 289 288 288 288 287 287 286 285 285 285 285 285 284 285 285 286 286 286 286 285 290 292 291 292 291 290 290 290 289 291 290 289 292 293
289 288 288 287 287 287 287 288 288 288 288 288 287 287 286 285 284 284 285 284 282 282 283 284 285 286 286 287 287 289 290 291 291 292 287 287 286 287 287 288 285 286 285
288 288 287 287 286 286 287 287 287 287 287 287 286 285 285 284 285 286 285 282 281 280 280 281 282 284 284 287 287 287 291 292 290 291 289 288 286 287 287 287 285 286 280
288 287 286 286 285 285 286 286 286 286 286 284 284 284 284 284 285 286 285 282 281 280 280 280 280 284 284 286 287 288 287 291 293 292 287 288 285 286 287 286 286 283 279
288 286 286 284 284 285 284 285 285 285 284 284 283 283 283 283 284 286 284 282 281 281 284 282 281 284 284 285 285 286 287 287 289 288 291 289 289 287 287 284 281 280 281
286 286 284 283 283 284 283 284 285 284 284 283 284 283 282 282 284 285 283 282 280 280 284 285 285 285 287 287 286 286 286 287 292 292 292 292 290 288 284 282 280 278 276
285 285 284 283 284 284 284 283 284 284 284 284 283 284 283 282 284 285 283 281 279 279 281 285 285 286 287 288 286 286 286 286 286 285 284 286 285 285 285 284 282 278 275
285 284 282 283 284 285 284 283 283 283 283 282 283 284 284 283 284 285 284 281 280 278 278 280 284 288 288 290 288 286 286 285 284 283 282 283 284 283 283 283 281 280 279
284 282 281 283 284 284 283 283 283 283 283 283 282 284 285 284 284 284 283 282 281 279 278 278 279 282 284 285 284 286 284 281 280 279 279 278 277 277 277 278 278 279 279
282 281 280 283 284 284 283 283 284 284 283 283 283 283 283 284 284 284 283 282 280 279 279 280 280 279 278 278 280 279 277 276 275 273 273 273 274 275 275 274 274 273 273
282 281 281 282 283 284 284 284 284 283 283 282 282 282 282 284 283 284 282 282 280 279 278 278 278 278 278 277 276 275 275 275 274 273 273 274 276 276 276 276 273 272 270
283 282 281 282 283 284 284 284 284 284 284 283 283 283 280 282 282 283 282 281 280 279 278 276 275 275 274 274 274 275 276 275 274 274 273 273 273 273 273 274 273 273 269
283 282 282 283 283 283 283 283 284 284 284 284 284 283 284 282 283 282 282 281 280 280 277 275 274 273 272 273 272 272 273 273 273 273 272 272 271 270 270 271 271 269 267
284 283 282 281 283 283 282 282 281 283 282 283 283 283 283 281 282 281 280 280 279 278 275 274 273 273 272 272 272 271 270 271 272 271 270 269 269 269 270 269 269 268 267
284 284 283 282 283 283 282 282 282 282 282 282 281 281 281 280 280 280 279 279 278 276 274 273 272 272 272 271 271 271 271 271 271 271 270 270 269 269 269 269 269 267 266
283 284 283 284 283 283 283 283 283 282 282 283 281 280 278 278 277 277 277 278 276 275 274 272 272 272 271 271 271 271 271 270 270 270 269 269 270 269 268 268 267 266 266
283 284 284 283 283 282 282 282 282 282 282 282 282 281 280 276 279 276 275 276 276 275 274 273 272 272 271 271 271 270 270 269 269 269 269 269 269 268 267 266 267 266 265
284 284 284 283 282 281 281 281 282 281 281 282 282 282 279 280 278 276 275 274 275 275 274 274 273 272 271 271 271 270 270 269 268 268 267 267 267 266 267 266 265 263 263
284 284 284 283 283 281 281 281 282 282 281 280 281 280 281 277 277 275 275 274 273 274 273 273 273 272 272 272 271 271 269 268 267 267 266 266 266 265 265 264 264 263 262
284 283 283 283 283 282 280 280 281 281 280 280 280 277 279 279 278 277 275 274 272 270 270 271 271 269 269 270 271 272 270 268 268 268 266 266 265 265 265 264 263 262 262
284 283 283 283 282 280 280 279 280 279 279 278 278 277 276 279 279 278 276 274 272 271 269 268 269 269 267 269 269 270 269 268 267 267 267 266 265 264 264 263 263 262 261
283 283 283 283 281 279 279 279 279 278 277 277 276 276 276 277 279 278 278 274 272 271 268 268 268 268 267 266 267 267 265 265 266 265 266 266 264 264 263 263 262 261 260
282 283 283 283 282 280 279 278 278 278 277 277 277 276 276 276 277 277 276 274 272 271 270 268 268 267 267 267 266 265 263 264 263 264 265 264 263 262 263 261 260 260 260
Wind_Speed
5 4 5 5 6 8 8 10 11 13 14 14 15 16 17 19 18 18 19 20 20 20 20 20 20 19 13 14 12 13 12 11 12 9 9 3 4 7 6 8 9 10 10
5 4 4 5 6 7 8 10 11 12 13 14 15 16 18 19 18 19 19 20 21 20 20 21 20 15 18 15 13 14 12 15 10 12 4 6 8 5 5 7 8 11 12
5 5 3 4 5 7 8 10 11 12 12 13 14 16 18 18 18 17 19 20 21 22 22 21 19 18 16 13 16 13 12 11 6 9 9 3 2 2 1 2 2 6 9
6 5 3 4 5 6 8 9 10 11 12 13 14 16 17 18 17 16 19 20 20 19 19 18 18 17 17 16 12 14 11 9 9 10 3 3 1 1 1 2 6 7 7
6 5 3 3 5 5 8 9 10 10 11 12 14 15 15 14 11 19 17 20 19 18 18 16 15 16 22 18 10 12 12 10 8 7 4 1 1 3 4 4 8 9 12
7 5 3 3 4 5 7 9 10 10 11 12 14 14 15 12 24 30 25 17 17 17 15 14 15 15 15 23 21 25 12 11 9 8 4 4 3 2 5 10 13 13 7
6 5 4 3 4 6 7 9 9 10 11 12 12 12 14 15 27 31 30 15 16 17 18 14 11 8 10 11 16 16 18 13 5 7 6 6 6 6 8 9 9 11 8
7 6 5 4 4 5 6 8 9 8 8 10 11 13 13 12 27 31 30 18 17 21 15 10 10 5 6 8 6 5 2 1 4 2 11 10 9 12 8 8 17 16 12
7 7 6 5 5 5 5 7 7 8 7 9 10 12 13 13 25 29 24 16 18 21 18 11 5 6 13 15 8 6 6 3 2 5 10 17 23 22 21 15 13 19 13
7 6 6 6 5 5 6 7 6 6 7 8 10 10 11 12 21 27 23 12 16 15 19 13 13 6 10 11 5 6 5 7 13 14 14 19 22 21 19 11 10 17 19
6 6 6 7 6 5 6 7 7 6 6 7 10 10 10 11 14 25 25 12 11 12 14 15 14 12 6 12 11 4 7 12 18 14 14 12 12 12 11 10 11 8 7
8 8 7 8 6 4 5 7 6 5 6 7 9 9 8 11 16 20 22 21 19 11 12 11 15 31 29 27 17 23 21 16 9 11 11 10 11 11 11 12 13 14 12
9 10 8 8 6 5 5 5 5 4 4 5 6 8 9 9 9 19 18 19 19 11 10 17 23 25 27 23 25 23 16 10 10 12 11 10 9 11 15 16 17 20 19
11 10 9 9 8 6 4 4 4 3 3 3 6 7 8 8 10 10 8 7 11 10 11 10 16 19 23 16 13 15 11 10 10 11 11 9 9 9 10 9 13 12 14
10 9 10 9 9 7 6 5 5 2 3 2 3 5 7 8 9 13 10 6 6 9 8 8 9 10 10 10 10 11 9 10 10 9 10 10 10 10 10 8 7 10 11
11 9 9 9 8 7 6 5 9 5 2 3 2 4 4 9 11 11 14 13 12 11 7 8 9 9 9 9 9 10 9 11 9 9 9 9 9 9 9 9 9 11 13
13 11 8 9 8 8 7 7 7 8 7 6 3 3 8 10 10 9 9 14 13 10 8 8 8 8 8 8 8 8 9 8 9 9 9 9 9 9 10 10 10 11 11
13 14 11 10 9 8 8 8 6 7 6 4 5 1 4 6 10 11 6 4 5 8 7 7 7 6 6 7 7 7 7 7 8 8 9 8 7 9 10 10 9 11 10
12 10 11 9 9 9 8 8 7 7 7 5 4 4 1 1 4 8 9 4 4 5 4 5 5 5 5 6 6 6 6 7 6 7 7 7 7 7 9 9 9 11 11
12 15 13 10 9 10 9 9 8 9 8 6 7 6 3 2 2 1 2 2 3 3 3 4 4 4 5 6 6 6 6 7 7 7 7 7 7 7 9 10 8 9 8
9 10 15 9 10 10 10 10 9 10 9 8 8 7 8 4 4 3 3 2 2 2 3 3 3 4 4 4 4 5 6 7 7 7 7 7 7 8 8 8 8 8 9
9 9 11 12 10 11 11 10 10 9 9 8 7 8 14 5 5 5 4 4 3 3 1 3 3 3 3 3 4 5 5 5 5 6 7 7 7 8 7 8 8 8 8
9 10 11 11 11 12 10 10 10 10 9 8 8 7 9 7 6 6 6 5 4 4 3 3 4 3 3 3 2 3 5 5 5 6 8 7 7 7 7 8 8 7 7
10 12 12 11 10 10 10 11 10 11 10 9 9 8 8 8 8 7 6 6 5 4 3 3 3 5 4 3 3 3 4 5 5 6 8 8 8 8 8 8 8 9 8
10 10 11 11 11 11 11 11 10 10 9 9 8 8 8 8 8 7 7 6 6 7 6 5 4 5 6 6 5 6 6 8 8 8 6 9 10 10 8 8 9 8 9
10 11 11 10 10 10 10 11 11 10 10 9 9 8 8 8 7 8 7 7 6 6 7 6 7 9 9 7 7 7 9 10 10 9 7 8 9 8 8 9 12 8 9
Wind_Direction
236 261 288 304 305 303 302 309 311 311 307 306 306 305 304 297 296 287 283 283 278 275 270 266 263 261 251 258 228 243 256 249 246 245 254 270 280 254 243 233 241 248 232
224 244 272 296 305 306 310 311 310 303 304 305 306 304 301 300 297 293 295 291 285 282 279 270 262 257 258 254 235 237 235 237 250 257 260 227 230 241 258 244 240 234 229
207 233 260 298 306 308 308 308 307 301 306 307 309 308 306 305 299 295 296 291 288 285 279 272 264 259 250 245 261 227 235 241 246 252 250 207 221 204 40 349 303 242 216
202 223 260 295 302 304 305 302 303 304 308 312 314 312 312 308 303 306 303 304 300 295 289 280 268 247 247 252 247 226 228 223 230 237 286 191 186 277 78 112 58 38 42
200 210 236 284 297 301 301 304 302 306 308 314 314 315 310 311 317 315 320 317 309 301 296 289 276 260 238 234 232 249 214 221 218 233 180 158 144 143 136 96 96 86 45
197 197 210 264 293 303 297 302 302 309 318 319 316 315 318 318 323 327 334 324 311 302 297 288 283 256 252 227 239 242 263 207 211 222 189 172 160 98 136 144 130 118 94
203 186 197 227 282 292 301 304 304 311 318 314 312 312 317 316 333 343 340 327 318 307 294 282 278 248 223 222 224 230 246 264 250 226 162 179 137 164 142 142 93 91 90
202 193 190 213 249 277 295 294 297 304 317 313 315 318 321 321 337 351 348 336 333 332 326 275 252 217 196 161 175 208 150 112 232 228 185 173 144 135 110 86 112 104 89
213 197 191 206 240 265 286 296 298 314 333 320 317 314 323 329 344 358 358 348 351 354 353 26 49 128 153 163 168 182 211 202 185 108 112 121 118 113 121 123 124 118 103
206 197 190 205 228 261 278 290 295 318 318 313 314 315 323 337 350 7 12 355 359 2 8 18 41 63 131 148 151 146 123 123 113 97 94 92 97 110 113 107 131 130 125
167 171 206 218 211 238 278 284 293 316 321 322 321 321 332 347 353 15 21 11 9 12 17 16 26 46 51 71 71 85 99 110 109 106 104 103 104 104 104 95 99 123 115
165 188 209 220 210 206 243 277 286 312 332 337 329 334 344 348 2 18 27 31 23 31 36 27 33 51 56 63 65 79 90 93 94 97 93 92 97 95 91 88 86 85 84
175 198 205 215 218 209 230 259 285 314 341 350 336 335 341 347 356 11 20 32 39 35 40 50 54 54 57 57 62 70 70 73 86 85 87 84 86 96 100 94 87 85 72
188 199 197 211 214 196 219 230 262 289 317 7 348 346 334 347 357 0 0 22 35 43 39 46 58 57 61 61 57 55 59 67 79 87 90 89 92 94 93 100 105 100 88
194 199 202 209 202 192 202 219 233 241 292 340 357 340 338 346 355 360 16 16 44 51 57 49 49 53 51 52 54 54 63 70 77 82 89 91 87 91 87 93 88 95 102
195 198 202 203 193 193 184 209 224 236 280 318 14 3 343 326 352 10 28 46 50 59 58 55 55 59 58 62 62 62 56 65 69 77 75 81 89 91 92 85 91 98 106
202 189 194 203 198 187 180 198 212 230 248 256 290 29 10 346 6 22 27 47 57 66 59 59 62 53 61 70 73 71 73 63 71 75 82 81 87 89 96 98 100 107 106
204 197 193 192 199 196 183 191 193 218 201 206 226 289 30 11 12 21 8 18 37 48 66 67 68 75 71 70 76 87 94 90 84 89 92 95 100 106 109 107 112 118 117
204 204 197 194 189 198 184 188 190 206 213 213 218 239 148 90 41 28 36 69 67 64 67 85 91 85 81 91 94 87 87 89 91 96 94 97 104 109 108 108 105 105 108
208 211 196 190 185 191 185 186 189 205 214 210 220 221 183 193 182 70 45 51 85 90 90 91 79 90 102 110 110 109 109 108 105 102 98 93 90 95 101 106 105 103 92
207 199 195 193 195 197 188 188 192 197 205 208 219 208 188 192 167 166 164 166 136 126 120 110 110 107 108 108 100 98 105 111 107 105 100 97 103 107 103 97 96 95 99
206 198 193 200 194 195 195 188 189 188 198 196 196 205 190 179 179 178 180 173 168 147 126 133 125 115 116 120 122 120 114 110 108 109 110 109 110 104 104 105 110 116 124
204 201 196 199 203 195 191 191 188 184 191 190 180 191 196 183 186 183 181 174 167 164 161 164 143 138 128 120 114 126 137 142 139 132 125 121 116 117 118 117 114 111 111
207 204 201 202 194 193 196 194 191 185 183 180 178 193 192 182 186 188 177 166 161 165 166 171 167 160 153 146 137 130 120 131 133 137 133 134 131 135 131 131 136 133 132
213 207 203 201 191 192 192 193 193 184 184 181 174 188 190 179 179 188 185 171 163 164 169 167 171 174 172 170 163 150 138 137 140 138 136 136 139 140 137 134 139 140 136
207 207 202 193 194 192 193 191 193 186 187 186 179 178 184 181 183 184 177 172 169 174 168 171 175 175 171 174 174 154 151 151 143 143 140 139 142 140 143 138 142 140 146